Time,TemperatureF,DewpointF,PressureIn,WindDirection,WindDirectionDegrees,WindSpeedMPH,WindSpeedGustMPH,Humidity,HourlyPrecipIn,Conditions,Clouds,dailyrainin,SoftwareType,DateUTC
2013-07-26 00:02:00,69.0,65.0,30.03,SE,142,0.0,0.0,88,0.00,,,0.00,,2013-07-26 05:02:00,
2013-07-26 00:12:00,69.0,66.0,30.03,SE,142,0.0,0.0,90,0.00,,,0.00,,2013-07-26 05:12:00,
2013-07-26 00:22:00,69.0,66.0,30.03,SE,142,0.0,0.0,90,0.00,,,0.00,,2013-07-26 05:22:00,
2013-07-26 00:32:00,69.0,65.0,30.02,SE,142,0.0,0.0,88,0.00,,,0.00,,2013-07-26 05:32:00,
2013-07-26 00:43:00,69.0,66.0,30.02,SE,142,0.0,0.0,89,0.00,,,0.00,,2013-07-26 05:43:00,
2013-07-26 00:52:00,69.0,66.0,30.02,SE,142,0.0,0.0,89,0.00,,,0.00,,2013-07-26 05:52:00,
2013-07-26 01:02:00,70.0,66.0,30.02,SE,140,0.0,0.0,87,0.00,,,0.00,,2013-07-26 06:02:00,
2013-07-26 01:12:00,70.0,66.0,30.02,South,185,0.0,0.0,87,0.00,,,0.00,,2013-07-26 06:12:00,
2013-07-26 01:22:00,70.0,66.0,30.02,South,185,0.0,0.0,87,0.00,,,0.00,,2013-07-26 06:22:00,
2013-07-26 01:33:00,70.0,65.0,30.02,SSE,166,0.0,0.0,85,0.00,,,0.00,,2013-07-26 06:33:00,
2013-07-26 01:43:00,70.0,65.0,30.01,SSE,153,0.0,0.0,85,0.00,,,0.00,,2013-07-26 06:43:00,
2013-07-26 01:52:00,70.0,65.0,30.01,SSE,153,0.0,0.0,85,0.00,,,0.00,,2013-07-26 06:52:00,
2013-07-26 02:02:00,69.0,65.0,30.01,SSE,148,0.0,0.0,86,0.00,,,0.00,,2013-07-26 07:02:00,
2013-07-26 02:12:00,68.0,65.0,30.01,SSE,148,0.0,0.0,89,0.00,,,0.00,,2013-07-26 07:12:00,
2013-07-26 02:22:00,68.0,65.0,30.01,SSE,148,0.0,0.0,89,0.00,,,0.00,,2013-07-26 07:22:00,
2013-07-26 02:32:00,67.0,64.0,30.01,SSE,148,0.0,0.0,91,0.00,,,0.00,,2013-07-26 07:32:00,
2013-07-26 02:43:00,67.0,64.0,30.01,SSE,148,0.0,0.0,91,0.00,,,0.00,,2013-07-26 07:43:00,
2013-07-26 02:53:00,67.0,64.0,30.01,SSE,148,0.0,0.0,91,0.00,,,0.00,,2013-07-26 07:53:00,
2013-07-26 03:02:00,67.0,65.0,30.01,SSE,150,0.0,0.0,92,0.00,,,0.00,,2013-07-26 08:02:00,
2013-07-26 03:12:00,66.0,64.0,30.01,SSE,150,0.0,0.0,93,0.00,,,0.00,,2013-07-26 08:12:00,
2013-07-26 03:22:00,66.0,64.0,30.01,SSE,150,0.0,0.0,93,0.00,,,0.00,,2013-07-26 08:22:00,
2013-07-26 03:32:00,66.0,64.0,30.00,SSE,151,0.0,0.0,94,0.00,,,0.00,,2013-07-26 08:32:00,
2013-07-26 03:52:00,65.0,64.0,30.00,SSE,150,0.0,0.0,95,0.00,,,0.00,,2013-07-26 08:52:00,
2013-07-26 04:02:00,65.0,64.0,30.00,SSE,150,0.0,0.0,95,0.00,,,0.00,,2013-07-26 09:02:00,
2013-07-26 04:12:00,65.0,64.0,29.99,SSE,150,0.0,0.0,96,0.00,,,0.00,,2013-07-26 09:12:00,
2013-07-26 04:22:00,65.0,64.0,29.99,SSE,150,0.0,0.0,96,0.00,,,0.00,,2013-07-26 09:22:00,
2013-07-26 04:32:00,65.0,64.0,29.99,SSE,150,0.0,0.0,96,0.00,,,0.00,,2013-07-26 09:32:00,
2013-07-26 04:52:00,65.0,64.0,29.99,SSE,151,0.0,0.0,96,0.00,,,0.00,,2013-07-26 09:52:00,
2013-07-26 05:02:00,64.0,63.0,29.99,SSE,150,0.0,0.0,96,0.00,,,0.00,,2013-07-26 10:02:00,
2013-07-26 05:12:00,64.0,63.0,30.00,SSE,151,0.0,0.0,97,0.00,,,0.00,,2013-07-26 10:12:00,
2013-07-26 05:22:00,64.0,63.0,30.00,SSE,151,0.0,0.0,97,0.00,,,0.00,,2013-07-26 10:22:00,
2013-07-26 05:33:00,64.0,63.0,30.00,SSE,150,0.0,0.0,97,0.00,,,0.00,,2013-07-26 10:33:00,
2013-07-26 05:42:00,65.0,64.0,30.00,SSE,156,0.0,0.0,97,0.00,,,0.00,,2013-07-26 10:42:00,
2013-07-26 05:52:00,65.0,64.0,30.00,SSE,156,0.0,0.0,97,0.00,,,0.00,,2013-07-26 10:52:00,
2013-07-26 06:02:00,65.0,64.0,30.01,SSE,156,0.0,0.0,97,0.00,,,0.00,,2013-07-26 11:02:00,
2013-07-26 06:12:00,65.0,64.0,30.01,SSE,156,0.0,0.0,97,0.00,,,0.00,,2013-07-26 11:12:00,
2013-07-26 06:22:00,65.0,64.0,30.01,SSE,156,0.0,0.0,97,0.00,,,0.00,,2013-07-26 11:22:00,
2013-07-26 06:32:00,65.0,64.0,30.01,SSE,156,0.0,0.0,97,0.00,,,0.00,,2013-07-26 11:32:00,
2013-07-26 06:43:00,65.0,64.0,30.01,SSE,157,0.0,0.0,97,0.00,,,0.00,,2013-07-26 11:43:00,
2013-07-26 06:52:00,65.0,64.0,30.01,SSE,157,0.0,0.0,97,0.00,,,0.00,,2013-07-26 11:52:00,
2013-07-26 07:02:00,65.0,64.0,30.01,SSE,156,0.0,0.0,97,0.00,,,0.00,,2013-07-26 12:02:00,
2013-07-26 07:12:00,66.0,65.0,30.01,SSE,156,0.0,0.0,97,0.00,,,0.00,,2013-07-26 12:12:00,
2013-07-26 07:22:00,66.0,65.0,30.01,SSE,156,0.0,0.0,97,0.00,,,0.00,,2013-07-26 12:22:00,
2013-07-26 07:33:00,66.0,65.0,30.01,SSE,156,0.0,0.0,96,0.00,,,0.00,,2013-07-26 12:33:00,
2013-07-26 07:43:00,67.0,65.0,30.01,ESE,121,0.0,0.0,93,0.00,,,0.00,,2013-07-26 12:43:00,
2013-07-26 07:53:00,67.0,65.0,30.01,ESE,121,0.0,0.0,93,0.00,,,0.00,,2013-07-26 12:53:00,
2013-07-26 08:02:00,67.0,65.0,30.01,SSE,155,0.0,0.0,92,0.00,,,0.00,,2013-07-26 13:02:00,
2013-07-26 08:12:00,68.0,65.0,30.01,SSE,155,0.0,0.0,91,0.00,,,0.00,,2013-07-26 13:12:00,
2013-07-26 08:32:00,68.0,65.0,30.01,SSE,153,0.0,0.0,91,0.00,,,0.00,,2013-07-26 13:32:00,
2013-07-26 08:43:00,69.0,66.0,30.01,SSE,154,0.0,0.0,90,0.00,,,0.00,,2013-07-26 13:43:00,
2013-07-26 08:53:00,69.0,66.0,30.01,SSE,154,0.0,0.0,90,0.00,,,0.00,,2013-07-26 13:53:00,
2013-07-26 09:02:00,69.0,66.0,30.02,SE,135,0.0,0.0,89,0.00,,,0.00,,2013-07-26 14:02:00,
2013-07-26 09:12:00,70.0,66.0,30.02,SE,146,0.0,0.0,87,0.00,,,0.00,,2013-07-26 14:12:00,
2013-07-26 09:32:00,70.0,66.0,30.01,South,169,1.0,4.0,87,0.00,,,0.00,,2013-07-26 14:32:00,
2013-07-26 09:43:00,70.0,65.0,30.01,SSE,153,2.0,4.0,85,0.00,,,0.00,,2013-07-26 14:43:00,
2013-07-26 09:53:00,70.0,65.0,30.01,SSE,153,2.0,4.0,85,0.00,,,0.00,,2013-07-26 14:53:00,
2013-07-26 10:02:00,71.0,66.0,30.00,South,169,0.0,3.0,85,0.00,,,0.00,,2013-07-26 15:02:00,
2013-07-26 10:12:00,71.0,66.0,30.00,SSE,152,0.0,3.0,84,0.00,,,0.00,,2013-07-26 15:12:00,
2013-07-26 10:22:00,71.0,66.0,30.00,SSE,152,0.0,3.0,84,0.00,,,0.00,,2013-07-26 15:22:00,
2013-07-26 10:33:00,71.0,66.0,30.01,SSW,203,0.0,3.0,83,0.00,,,0.00,,2013-07-26 15:33:00,
2013-07-26 10:43:00,71.0,66.0,30.01,SSW,200,0.0,3.0,83,0.00,,,0.00,,2013-07-26 15:43:00,
2013-07-26 10:53:00,71.0,66.0,30.01,SSW,200,0.0,3.0,83,0.00,,,0.00,,2013-07-26 15:53:00,
2013-07-26 11:02:00,71.0,66.0,30.02,South,173,0.0,1.0,84,0.00,,,0.00,,2013-07-26 16:02:00,
2013-07-26 11:14:00,71.0,65.0,30.02,SSE,158,1.0,3.0,82,0.00,,,0.00,,2013-07-26 16:14:00,
2013-07-26 11:22:00,71.0,65.0,30.02,SSE,158,1.0,3.0,82,0.00,,,0.00,,2013-07-26 16:22:00,
2013-07-26 11:32:00,71.0,66.0,30.03,SSE,166,0.0,2.0,84,0.00,,,0.00,,2013-07-26 16:32:00,
2013-07-26 11:43:00,71.0,67.0,30.03,SSE,148,0.0,0.0,86,0.00,,,0.00,,2013-07-26 16:43:00,
2013-07-26 11:54:00,71.0,67.0,30.03,SSE,148,0.0,0.0,86,0.00,,,0.00,,2013-07-26 16:54:00,
2013-07-26 12:02:00,71.0,67.0,30.03,South,173,0.0,4.0,86,0.00,,,0.00,,2013-07-26 17:02:00,
2013-07-26 12:12:00,71.0,67.0,30.03,South,181,0.0,3.0,86,0.01,,,0.01,,2013-07-26 17:12:00,
2013-07-26 12:22:00,71.0,67.0,30.03,South,181,0.0,3.0,86,0.01,,,0.01,,2013-07-26 17:22:00,
2013-07-26 12:33:00,70.0,66.0,30.03,South,171,0.0,4.0,87,0.02,,,0.02,,2013-07-26 17:33:00,
2013-07-26 12:43:00,70.0,67.0,30.04,SW,232,1.0,4.0,90,0.02,,,0.02,,2013-07-26 17:43:00,
2013-07-26 12:53:00,70.0,67.0,30.04,SW,232,1.0,4.0,90,0.02,,,0.02,,2013-07-26 17:53:00,
2013-07-26 13:03:00,70.0,67.0,30.04,WSW,240,1.0,4.0,91,0.03,,,0.03,,2013-07-26 18:03:00,
2013-07-26 13:12:00,69.0,67.0,30.04,SSE,155,1.0,5.0,92,0.04,,,0.05,,2013-07-26 18:12:00,
2013-07-26 13:23:00,69.0,67.0,30.04,SSE,155,1.0,5.0,92,0.04,,,0.05,,2013-07-26 18:23:00,
2013-07-26 13:33:00,69.0,67.0,30.03,South,179,1.0,3.0,94,0.05,,,0.07,,2013-07-26 18:33:00,
2013-07-26 13:43:00,68.0,65.0,30.04,WSW,252,3.0,9.0,91,0.09,,,0.11,,2013-07-26 18:43:00,
2013-07-26 13:52:00,68.0,65.0,30.04,WSW,252,3.0,9.0,91,0.09,,,0.11,,2013-07-26 18:52:00,
2013-07-26 14:03:00,67.0,65.0,30.03,SW,215,1.0,4.0,93,0.20,,,0.23,,2013-07-26 19:03:00,
2013-07-26 14:12:00,67.0,66.0,30.03,WNW,295,0.0,2.0,95,0.32,,,0.37,,2013-07-26 19:12:00,
2013-07-26 14:22:00,67.0,66.0,30.03,WNW,295,0.0,2.0,95,0.32,,,0.37,,2013-07-26 19:22:00,
2013-07-26 14:32:00,67.0,66.0,30.03,SW,225,0.0,2.0,96,0.41,,,0.48,,2013-07-26 19:32:00,
2013-07-26 14:43:00,68.0,67.0,30.02,SSW,207,0.0,1.0,96,0.39,,,0.50,,2013-07-26 19:43:00,
2013-07-26 14:52:00,68.0,67.0,30.02,SSW,207,0.0,1.0,96,0.39,,,0.50,,2013-07-26 19:52:00,
2013-07-26 15:02:00,69.0,68.0,30.03,SSE,155,1.0,2.0,95,0.26,,,0.50,,2013-07-26 20:02:00,
2013-07-26 15:12:00,69.0,67.0,30.03,SSW,195,1.0,4.0,93,0.12,,,0.51,,2013-07-26 20:12:00,
2013-07-26 15:22:00,69.0,67.0,30.03,SSW,195,1.0,4.0,93,0.12,,,0.51,,2013-07-26 20:22:00,
2013-07-26 15:32:00,69.0,67.0,30.02,SSW,200,1.0,3.0,94,0.03,,,0.51,,2013-07-26 20:32:00,
2013-07-26 15:43:00,70.0,68.0,30.02,SSE,166,0.0,2.0,94,0.01,,,0.51,,2013-07-26 20:43:00,
2013-07-26 15:53:00,70.0,68.0,30.02,SSE,166,0.0,2.0,94,0.01,,,0.51,,2013-07-26 20:53:00,
2013-07-26 16:02:00,70.0,68.0,30.01,ESE,110,0.0,2.0,93,0.01,,,0.51,,2013-07-26 21:02:00,
2013-07-26 16:12:00,70.0,68.0,30.01,SSE,150,0.0,2.0,93,0.01,,,0.52,,2013-07-26 21:12:00,
2013-07-26 16:22:00,70.0,68.0,30.01,SSE,150,0.0,2.0,93,0.01,,,0.52,,2013-07-26 21:22:00,
2013-07-26 16:32:00,70.0,68.0,30.01,SE,135,0.0,2.0,94,0.01,,,0.52,,2013-07-26 21:32:00,
2013-07-26 16:43:00,70.0,68.0,30.00,SE,141,0.0,1.0,95,0.03,,,0.54,,2013-07-26 21:43:00,
2013-07-26 16:53:00,70.0,68.0,30.00,SE,141,0.0,1.0,95,0.03,,,0.54,,2013-07-26 21:53:00,
2013-07-26 17:02:00,69.0,67.0,30.01,ESE,115,0.0,3.0,94,0.05,,,0.56,,2013-07-26 22:02:00,
2013-07-26 17:12:00,69.0,68.0,30.01,SSE,151,0.0,2.0,95,0.04,,,0.56,,2013-07-26 22:12:00,
2013-07-26 17:22:00,69.0,68.0,30.01,SSE,151,0.0,2.0,95,0.04,,,0.56,,2013-07-26 22:22:00,
2013-07-26 17:33:00,69.0,67.0,30.00,SSE,163,0.0,2.0,94,0.05,,,0.56,,2013-07-26 22:33:00,
2013-07-26 17:43:00,69.0,68.0,30.00,NE,44,1.0,4.0,95,0.04,,,0.57,,2013-07-26 22:43:00,
2013-07-26 17:53:00,69.0,68.0,30.00,NE,44,1.0,4.0,95,0.04,,,0.57,,2013-07-26 22:53:00,
2013-07-26 18:02:00,69.0,68.0,29.99,ESE,103,1.0,2.0,95,0.03,,,0.59,,2013-07-26 23:02:00,
2013-07-26 18:12:00,69.0,68.0,29.99,NE,44,1.0,5.0,95,0.03,,,0.59,,2013-07-26 23:12:00,
2013-07-26 18:22:00,69.0,68.0,29.99,NE,44,1.0,5.0,95,0.03,,,0.59,,2013-07-26 23:22:00,
2013-07-26 18:32:00,69.0,68.0,29.98,NW,310,0.0,1.0,95,0.02,,,0.59,,2013-07-26 23:32:00,
2013-07-26 18:43:00,69.0,68.0,29.98,NW,312,0.0,1.0,95,0.00,,,0.59,,2013-07-26 23:43:00,
2013-07-26 18:52:00,69.0,68.0,29.98,NW,312,0.0,1.0,95,0.00,,,0.59,,2013-07-26 23:52:00,
2013-07-26 19:02:00,69.0,68.0,29.97,NW,314,0.0,1.0,95,0.00,,,0.59,,2013-07-27 00:02:00,
2013-07-26 19:12:00,69.0,68.0,29.96,SSE,148,0.0,1.0,95,0.00,,,0.59,,2013-07-27 00:12:00,
2013-07-26 19:22:00,69.0,68.0,29.96,SSE,148,0.0,1.0,95,0.00,,,0.59,,2013-07-27 00:22:00,
2013-07-26 19:32:00,69.0,68.0,29.96,NE,40,0.0,1.0,96,0.00,,,0.59,,2013-07-27 00:32:00,
2013-07-26 19:43:00,69.0,68.0,29.96,NE,40,0.0,1.0,96,0.00,,,0.59,,2013-07-27 00:43:00,
2013-07-26 19:53:00,69.0,68.0,29.96,North,8,0.0,1.0,96,0.00,,,0.59,,2013-07-27 00:53:00,
2013-07-26 20:02:00,69.0,68.0,29.96,NNE,30,0.0,1.0,97,0.00,,,0.59,,2013-07-27 01:02:00,
2013-07-26 20:12:00,69.0,68.0,29.96,NNE,30,0.0,1.0,97,0.00,,,0.59,,2013-07-27 01:12:00,
2013-07-26 20:22:00,69.0,68.0,29.96,NNE,30,0.0,1.0,97,0.00,,,0.59,,2013-07-27 01:22:00,
2013-07-26 20:32:00,68.0,67.0,29.96,NNE,30,0.0,1.0,97,0.00,,,0.59,,2013-07-27 01:32:00,
2013-07-26 20:43:00,68.0,67.0,29.96,NNE,30,0.0,1.0,97,0.00,,,0.59,,2013-07-27 01:43:00,
2013-07-26 20:53:00,68.0,67.0,29.95,NNE,30,0.0,1.0,97,0.00,,,0.59,,2013-07-27 01:53:00,
2013-07-26 21:02:00,68.0,67.0,29.95,NNE,30,0.0,1.0,97,0.00,,,0.59,,2013-07-27 02:02:00,
2013-07-26 21:12:00,68.0,67.0,29.95,NNE,30,0.0,0.0,97,0.00,,,0.59,,2013-07-27 02:12:00,
2013-07-26 21:32:00,68.0,67.0,29.95,NNE,30,0.0,0.0,98,0.00,,,0.59,,2013-07-27 02:32:00,
2013-07-26 21:43:00,68.0,67.0,29.97,SE,129,0.0,1.0,98,0.00,,,0.59,,2013-07-27 02:43:00,
2013-07-26 21:53:00,68.0,67.0,29.97,SE,129,0.0,1.0,98,0.00,,,0.59,,2013-07-27 02:53:00,
2013-07-26 22:03:00,68.0,67.0,29.98,SE,134,0.0,1.0,98,0.00,,,0.59,,2013-07-27 03:03:00,
2013-07-26 22:12:00,68.0,67.0,29.98,SE,134,0.0,1.0,98,0.00,,,0.59,,2013-07-27 03:12:00,
2013-07-26 22:22:00,68.0,67.0,29.98,SE,134,0.0,1.0,98,0.00,,,0.59,,2013-07-27 03:22:00,
2013-07-26 22:33:00,68.0,67.0,29.98,SSE,160,0.0,2.0,98,0.00,,,0.59,,2013-07-27 03:33:00,
2013-07-26 22:44:00,67.0,66.0,29.98,SSE,159,0.0,0.0,98,0.00,,,0.59,,2013-07-27 03:44:00,
2013-07-26 22:52:00,67.0,66.0,29.98,SSE,159,0.0,0.0,98,0.00,,,0.59,,2013-07-27 03:52:00,
2013-07-26 23:02:00,67.0,66.0,29.97,SSE,159,0.0,1.0,98,0.00,,,0.59,,2013-07-27 04:02:00,
2013-07-26 23:12:00,67.0,66.0,29.98,SSW,198,0.0,1.0,98,0.00,,,0.59,,2013-07-27 04:12:00,
2013-07-26 23:22:00,67.0,66.0,29.98,SSW,198,0.0,1.0,98,0.00,,,0.59,,2013-07-27 04:22:00,
2013-07-26 23:32:00,67.0,66.0,29.97,WSW,241,0.0,1.0,98,0.00,,,0.59,,2013-07-27 04:32:00,
2013-07-26 23:43:00,67.0,66.0,29.98,South,171,0.0,1.0,98,0.00,,,0.59,,2013-07-27 04:43:00,
2013-07-26 23:53:00,67.0,66.0,29.98,South,171,0.0,1.0,98,0.00,,,0.59,,2013-07-27 04:53:00,